Weather History for Estherville, IA

Change the Weather History Date:

Friday, September 27, 2013

  Actual Average Record
Temperature  
Mean Temperature 77 °F 56 °F  
Max Temperature 88 °F 69 °F 95 °F (1956)
Min Temperature 66 °F 43 °F 29 °F (1984)
Degree Days  
Heating Degree Days 0 10  
Month to date heating degree days 90 143  
Since 1 July heating degree days 135 175  
Cooling Degree Days 12 1  
Month to date cooling degree days 116 47  
Year to date cooling degree days 710 587  
Growing Degree Days 26 (Base 50)    
Moisture  
Dew Point 61 °F    
Average Humidity 66    
Maximum Humidity 93    
Minimum Humidity 39    
Precipitation  
Precipitation 0.04 in 0.11 in 1.00 in (1965)
Month to date precipitation 0.48 3.02  
Sea Level Pressure  
Sea Level Pressure 29.81 in    
Wind  
Wind Speed 17 mph (SSE)    
Max Wind Speed 31 mph    
Max Gust Speed 41 mph    
Visibility 10 miles    
Events Rain    
T = Trace of Precipitation, MM = Missing Value Source: NWS Daily Summary

Daily Weather History Graph

Daily Weather History Graph

Search for Another Location

Airport:

Trip Planner

Search our weather history database for the weather conditions in past years. The results will help you decide how hot, cold, wet, or windy it might be!

Date:

Astronomy

Sep. 27, 2013 Rise Set
Actual Time 7:12 AM CDT 7:06 PM CDT
Civil Twilight 6:43 AM CDT 7:35 PM CDT
Nautical Twilight 6:10 AM CDT 8:08 PM CDT
Astronomical Twilight 5:36 AM CDT 8:42 PM CDT
Moon No Moon Rise 2:54 PM CDT (9/27)
Length of Visible Light 12h 51m
Length of Day
11h 54m
Last Quarter, 45% of the Moon is Illuminated
Sep 27
Last Quarter
Oct 4
New
Oct 11
First Quarter
Oct 18
Full
Oct 26
Last Quarter

Hourly Weather History & Observations

Time (CDT) Temp. Heat Index Dew Point Humidity Pressure Visibility Wind Dir Wind Speed Gust Speed Precip Events Conditions
12:52 AM 71.1 °F - 61.0 °F 70% 29.85 in 10.0 mi SSE 15.0 mph 24.2 mph N/A   Clear
1:52 AM 69.1 °F - 61.0 °F 75% 29.86 in 10.0 mi South 12.7 mph 21.9 mph N/A   Clear
2:52 AM 69.1 °F - 62.1 °F 78% 29.85 in 10.0 mi South 16.1 mph 24.2 mph N/A   Clear
3:52 AM 69.1 °F - 62.1 °F 78% 29.83 in 10.0 mi SSE 16.1 mph 23.0 mph N/A   Clear
4:52 AM 68.0 °F - 62.1 °F 81% 29.83 in 10.0 mi SSE 15.0 mph 23.0 mph N/A   Clear
5:52 AM 68.0 °F - 62.1 °F 81% 29.83 in 10.0 mi SSE 17.3 mph 26.5 mph N/A   Clear
6:52 AM 66.9 °F - 62.1 °F 84% 29.85 in 10.0 mi SSE 11.5 mph - N/A   Partly Cloudy
7:52 AM 66.9 °F - 63.0 °F 87% 29.87 in 10.0 mi SSE 11.5 mph - 0.00 in   Overcast
8:52 AM 66.0 °F - 63.0 °F 90% 29.83 in 5.0 mi SSE 16.1 mph 23.0 mph 0.00 in Rain Light Rain
9:52 AM 66.9 °F - 64.0 °F 90% 29.86 in 9.0 mi SSE 17.3 mph 21.9 mph 0.04 in Rain Light Rain
10:52 AM 69.1 °F - 64.0 °F 84% 29.82 in 10.0 mi SSE 19.6 mph 26.5 mph 0.00 in   Partly Cloudy
11:52 AM 73.9 °F - 64.0 °F 71% 29.83 in 10.0 mi South 18.4 mph - N/A   Clear
12:52 PM 81.0 °F 81.9 °F 62.1 °F 52% 29.81 in 10.0 mi South 23.0 mph 32.2 mph N/A   Clear
1:52 PM 84.9 °F 84.2 °F 57.9 °F 40% 29.78 in 10.0 mi South 25.3 mph 39.1 mph N/A   Clear
2:52 PM 87.1 °F 86.5 °F 59.0 °F 39% 29.77 in 10.0 mi South 27.6 mph 41.4 mph N/A   Clear
3:52 PM 84.9 °F 84.8 °F 60.1 °F 43% 29.77 in 10.0 mi South 25.3 mph 34.5 mph N/A   Clear
4:52 PM 87.1 °F 86.7 °F 60.1 °F 40% 29.77 in 10.0 mi South 26.5 mph 34.5 mph N/A   Clear
5:52 PM 82.9 °F 83.2 °F 60.1 °F 46% 29.78 in 10.0 mi South 21.9 mph 31.1 mph N/A   Clear
6:52 PM 81.0 °F 81.6 °F 60.1 °F 49% 29.78 in 10.0 mi SSE 13.8 mph 25.3 mph N/A   Clear
7:52 PM 78.1 °F - 60.1 °F 54% 29.78 in 10.0 mi SSE 11.5 mph 20.7 mph N/A   Clear
8:52 PM 75.9 °F - 60.1 °F 58% 29.81 in 10.0 mi SSE 13.8 mph - N/A   Clear
9:52 PM 73.9 °F - 61.0 °F 64% 29.81 in 10.0 mi SSE 15.0 mph 21.9 mph N/A   Clear
10:52 PM 73.0 °F - 61.0 °F 66% 29.79 in 10.0 mi SSE 17.3 mph 26.5 mph N/A   Clear
11:52 PM 70.0 °F - 61.0 °F 73% 29.77 in 10.0 mi SSE 11.5 mph - N/A   Clear